Weather History for Mineola, TX

Change the Weather History Date:

Sunday, October 16, 2011

  Actual Average (KTYR) Record (KTYR)
Temperature  
Mean Temperature 72 °F 67 °F  
Max Temperature 87 °F 78 °F 98 °F (1910)
Min Temperature 57 °F 56 °F 36 °F (1966)
Degree Days  
Heating Degree Days 0 2  
Month to date heating degree days 19  
Since 1 July heating degree days 24  
Cooling Degree Days 7 4  
Month to date cooling degree days 86  
Year to date cooling degree days 2350  
Growing Degree Days 22 (Base 50)    
Moisture  
Dew Point 55 °F    
Average Humidity 58    
Maximum Humidity 88    
Minimum Humidity 25    
Precipitation  
Precipitation 0.00 in 0.17 in 2.55 in (1923)
Month to date precipitation 2.29  
Year to date precipitation 34.89  
Snow  
Snow 0.00 in - - ()
Month to date snowfall  
Since 1 July snowfall  
Since 1 September snowfall  
Snow Depth -    
Sea Level Pressure  
Sea Level Pressure 30.04 in    
Wind  
Wind Speed 4 mph (SSW)    
Max Wind Speed 10 mph    
Max Gust Speed 16 mph    
Visibility 10 miles    
Events      
T = Trace of Precipitation, MM = Missing Value Source: NWS Daily Summary

Daily Weather History Graph

Daily Weather History Graph

Search for Another Location

Airport:

Trip Planner

Search our weather history database for the weather conditions in past years. The results will help you decide how hot, cold, wet, or windy it might be!

Date:

Astronomy

Oct. 16, 2011 Rise Set
Actual Time 7:26 AM CDT 6:48 PM CDT
Civil Twilight 7:01 AM CDT 7:12 PM CDT
Nautical Twilight 6:33 AM CDT 7:41 PM CDT
Astronomical Twilight 6:04 AM CDT 8:10 PM CDT
Moon 9:48 PM CDT (10/16) 11:30 AM CDT (10/16)
Length of Visible Light 12h 11m
Length of Day
11h 21m
Waning Gibbous, 82% of the Moon is Illuminated
Oct 16
Waning Gibbous
Oct 19
Last Quarter
Oct 26
New
Nov 2
First Quarter
Nov 10
Full

Hourly Weather History & Observations

Time (CDT) Temp. Heat Index Dew Point Humidity Pressure Visibility Wind Dir Wind Speed Gust Speed Precip Events Conditions
12:35 AM 60.8 °F - 53.6 °F 77% 30.07 in 10.0 mi Calm Calm - N/A   Clear
12:55 AM 60.8 °F - 53.6 °F 77% 30.06 in 10.0 mi Calm Calm - N/A   Clear
1:15 AM 59.0 °F - 53.6 °F 82% 30.06 in 10.0 mi Calm Calm - N/A   Clear
1:55 AM 57.2 °F - 53.6 °F 88% 30.06 in 10.0 mi Calm Calm - N/A   Clear
2:15 AM 57.2 °F - 53.6 °F 88% 30.06 in 10.0 mi Calm Calm - N/A   Clear
2:35 AM 57.2 °F - 53.6 °F 88% 30.06 in 10.0 mi Calm Calm - N/A   Clear
2:55 AM 57.2 °F - 53.6 °F 88% 30.06 in 10.0 mi Calm Calm - N/A   Clear
3:15 AM 57.2 °F - 53.6 °F 88% 30.07 in 10.0 mi Calm Calm - N/A   Clear
3:55 AM 69.8 °F - 51.8 °F 53% 30.06 in 10.0 mi South 6.9 mph - N/A   Clear
4:15 AM 69.8 °F - 51.8 °F 53% 30.06 in 10.0 mi South 5.8 mph - N/A   Clear
4:35 AM 66.2 °F - 51.8 °F 60% 30.06 in 10.0 mi South 5.8 mph - N/A   Clear
4:55 AM 66.2 °F - 53.6 °F 64% 30.06 in 10.0 mi South 4.6 mph - N/A   Clear
5:15 AM 64.4 °F - 53.6 °F 68% 30.07 in 10.0 mi Calm Calm - N/A   Clear
5:35 AM 60.8 °F - 53.6 °F 77% 30.07 in 10.0 mi Calm Calm - N/A   Clear
5:55 AM 62.6 °F - 55.4 °F 77% 30.08 in 10.0 mi South 5.8 mph - N/A   Clear
6:15 AM 64.4 °F - 57.2 °F 77% 30.08 in 10.0 mi SSW 8.1 mph - N/A   Clear
6:35 AM 64.4 °F - 57.2 °F 77% 30.08 in 10.0 mi SSW 9.2 mph - N/A   Clear
7:15 AM 66.2 °F - 60.8 °F 83% 30.08 in 10.0 mi SSW 8.1 mph - N/A   Clear
7:35 AM 64.4 °F - 60.8 °F 88% 30.08 in 10.0 mi SSW 6.9 mph - N/A   Clear
7:55 AM 64.4 °F - 60.8 °F 88% 30.09 in 10.0 mi SSW 6.9 mph - N/A   Clear
8:15 AM 64.4 °F - 60.8 °F 88% 30.09 in 10.0 mi SSW 6.9 mph - N/A   Clear
8:35 AM 66.2 °F - 60.8 °F 83% 30.09 in 10.0 mi SSW 6.9 mph - N/A   Clear
8:55 AM 68.0 °F - 60.8 °F 78% 30.10 in 10.0 mi SSW 6.9 mph - N/A   Clear
9:15 AM 69.8 °F - 60.8 °F 73% 30.10 in 10.0 mi SW 4.6 mph - N/A   Clear
9:35 AM 71.6 °F - 60.8 °F 69% 30.11 in 10.0 mi SSW 9.2 mph - N/A   Clear
9:55 AM 73.4 °F - 60.8 °F 65% 30.11 in 10.0 mi SSW 6.9 mph - N/A   Clear
10:15 AM 75.2 °F - 59.0 °F 57% 30.11 in 10.0 mi SW 8.1 mph - N/A   Clear
10:35 AM 77.0 °F - 57.2 °F 50% 30.11 in 10.0 mi SSW 6.9 mph - N/A   Clear
10:55 AM 78.8 °F - 57.2 °F 47% 30.11 in 10.0 mi SW 8.1 mph - N/A   Clear
11:15 AM 78.8 °F - 57.2 °F 47% 30.11 in 10.0 mi South 10.4 mph - N/A   Clear
11:35 AM 80.6 °F 80.8 °F 57.2 °F 45% 30.10 in 10.0 mi SSW 10.4 mph - N/A   Clear
11:55 AM 80.6 °F 80.8 °F 57.2 °F 45% 30.09 in 10.0 mi SW 8.1 mph - N/A   Clear
12:15 PM 80.6 °F 80.8 °F 57.2 °F 45% 30.08 in 10.0 mi SSW 8.1 mph 16.1 mph N/A   Clear
12:35 PM 82.4 °F 81.7 °F 55.4 °F 39% 30.08 in 10.0 mi South 9.2 mph - N/A   Clear
12:55 PM 82.4 °F 81.7 °F 55.4 °F 39% 30.07 in 10.0 mi South 10.4 mph - N/A   Clear
1:15 PM 82.4 °F 81.4 °F 53.6 °F 37% 30.06 in 10.0 mi SSE 9.2 mph - N/A   Clear
1:55 PM 84.2 °F 82.8 °F 53.6 °F 35% 30.03 in 10.0 mi SSW 8.1 mph - N/A   Clear
2:15 PM - - - N/A% 30.01 in - South 9.2 mph - N/A   Unknown
2:35 PM 86.0 °F - 51.8 °F 31% - 10.0 mi North - - N/A   Clear
2:55 PM - - - N/A% 29.99 in - SW 6.9 mph - N/A   Unknown
3:15 PM 86.0 °F - 51.8 °F 31% 29.99 in 10.0 mi SW 8.1 mph - N/A   Clear
3:35 PM 87.8 °F - 51.8 °F 29% 29.99 in 10.0 mi South 6.9 mph - N/A   Clear
3:55 PM 87.8 °F - 51.8 °F 29% 29.98 in 10.0 mi SSW 5.8 mph - N/A   Clear
4:15 PM 87.8 °F - 51.8 °F 29% 29.98 in 10.0 mi South 8.1 mph - N/A   Clear
4:35 PM 87.8 °F - 51.8 °F 29% 29.98 in 10.0 mi South 6.9 mph - N/A   Clear
4:55 PM 87.8 °F - 48.2 °F 25% 29.97 in 10.0 mi SSW 8.1 mph - N/A   Clear
5:15 PM 86.0 °F - 50.0 °F 29% 29.97 in 10.0 mi SSW 5.8 mph - N/A   Clear
5:35 PM 86.0 °F - 50.0 °F 29% 29.96 in 10.0 mi South 5.8 mph - N/A   Clear
5:55 PM 86.0 °F - 48.2 °F 27% 29.96 in 10.0 mi SSW 4.6 mph - N/A   Clear
6:35 PM 82.4 °F - 50.0 °F 32% 29.96 in 10.0 mi Calm Calm - N/A   Clear
6:55 PM 80.6 °F - 51.8 °F 37% 29.96 in 10.0 mi Calm Calm - N/A   Clear
7:15 PM 77.0 °F - 53.6 °F 44% 29.96 in 10.0 mi Calm Calm - N/A   Clear
7:35 PM 73.4 °F - 55.4 °F 53% 29.97 in 10.0 mi Calm Calm - N/A   Clear
7:55 PM 71.6 °F - 55.4 °F 57% 29.97 in 10.0 mi Calm Calm - N/A   Clear
8:15 PM 69.8 °F - 55.4 °F 60% 29.97 in 10.0 mi Calm Calm - N/A   Clear
8:35 PM 69.8 °F - 55.4 °F 60% 29.98 in 10.0 mi Calm Calm - N/A   Clear
8:55 PM 69.8 °F - 55.4 °F 60% 29.98 in 10.0 mi Calm Calm - N/A   Clear
9:15 PM 69.8 °F - 55.4 °F 60% 29.98 in 10.0 mi Calm Calm - N/A   Clear
9:35 PM 66.2 °F - 57.2 °F 73% 29.98 in 10.0 mi Calm Calm - N/A   Clear
9:55 PM 68.0 °F - 55.4 °F 64% 29.98 in 10.0 mi South 3.5 mph - N/A   Clear
10:15 PM 69.8 °F - 55.4 °F 60% 29.98 in 10.0 mi Calm Calm - N/A   Clear
10:35 PM 71.6 °F - 53.6 °F 53% 29.98 in 10.0 mi South 4.6 mph - N/A   Clear
10:55 PM 73.4 °F - 55.4 °F 53% 29.97 in 10.0 mi South 4.6 mph - N/A   Clear
11:15 PM 73.4 °F - 53.6 °F 50% 29.97 in 10.0 mi South 5.8 mph - N/A   Clear
11:35 PM 71.6 °F - 53.6 °F 53% 29.97 in 10.0 mi SSE 5.8 mph - N/A   Clear
11:55 PM 71.6 °F - 53.6 °F 53% 29.97 in 10.0 mi South 5.8 mph - N/A   Clear